Flag for Germany Weather past 2 weeks in Osterholz-Scharmbeck, Lower Saxony, Germany

Now
80 °F

Partly sunny.


Feels Like: 82 °F
Forecast: 60 / 94 °F
Wind: 3 mph from West

Location: Bremen

Current Time: Jul 3, 2015 at 1:48:00 PM

Latest Report: Jul 3, 2015 at 1:00 PM


Visibility: 16 mi

Pressure: 30.25 "Hg

Humidity: 61%

Dew point: 66 °F

Location of Osterholz-ScharmbeckLocation

Historic Weather in Osterholz-Scharmbeck — Graph

°F

Osterholz-Scharmbeck temperature yesterday

Maximum temperature yesterday: 92 °F (at 6:00 PM)
Minimum temperature yesterday: 66 °F (at 6:00 AM)
Average temperature yesterday: 81 °F

Past Weeks' High & Low Weather Summary

 TemperatureHumidityPressure
High92 °F (Jul 2, 6:00 PM)100% (Jun 28, 5:00 AM)30.27 "Hg (Jun 28, 5:00 AM)
Low46 °F (Jun 21, 1:00 AM)32% (Jul 1, 7:00 PM)29.66 "Hg (Jun 22, 9:00 PM)
Average62 °F72%30.05 "Hg
* Reported Jun 18 12:00 Noon — Jul 3 12:00 Noon, Osterholz-Scharmbeck, Weather by CustomWeather, © 2015

Note: Actual official high and low records may vary slightly from our data, if they occured in-between our weather recording intervals... More about our weather records

Advertising

Osterholz-Scharmbeck weather history for previous 24 hours

 ConditionsComfort  
Time TempWeatherWind HumidityBarometerVisibility
12:00 PM
Fri, Jul 3
77 °FOvercast.3 mph67%30.27 "Hg16 mi
10:00 AM72 °FOvercast.2 mph79%30.25 "Hg16 mi
9:00 AM70 °FOvercast.1 mph81%30.24 "Hg12 mi
8:00 AM67 °FOvercast.3 mph90%30.22 "Hg12 mi
7:00 AM69 °FThunderstorms. Overcast.7 mph83%30.20 "Hg12 mi
6:00 AM71 °FMild.9 mph75%30.20 "HgN/A
4:00 AM72 °FPassing clouds.7 mph71%30.22 "Hg25 mi
3:00 AM73 °FPassing clouds.8 mph69%30.19 "Hg12 mi
2:00 AM76 °FMild.3 mph52%30.15 "HgN/A
1:00 AM78 °FPassing clouds.5 mph49%30.14 "Hg22 mi
12:00 AM78 °FPassing clouds.5 mph49%30.12 "Hg19 mi
10:00 PM
Thu, Jul 2
84 °FPassing clouds.N/A40%30.12 "Hg19 mi
9:00 PM87 °FPassing clouds.6 mph39%30.11 "Hg19 mi
8:00 PM90 °FPassing clouds.5 mph37%30.10 "Hg19 mi
7:00 PM91 °FPassing clouds.6 mph35%30.11 "Hg16 mi
6:00 PM92 °FPassing clouds.8 mph32%30.10 "Hg15 mi
5:00 PM92 °FDense fog.7 mph34%30.11 "Hg0 mi
4:00 PM91 °FSunny.8 mph34%30.11 "Hg14 mi
3:00 PM91 °FSunny.8 mph36%30.12 "Hg14 mi
2:00 PM89 °FSunny.8 mph37%30.12 "Hg14 mi
1:00 PM87 °FSunny.9 mph38%30.13 "Hg12 mi
Weather by CustomWeather, © 2015

See weather overviewHow to use our weather pages